Volver al catálogo

STARLINK-30606

ActivoComunicacionesVLEO
NORAD 58109·PAYLOAD·🇺🇸 United States

Lanzado Oct 21, 2023 desde Vandenberg Space Force Base

Loading…

Próximos Pases (próximas 24 horas)

TLE

ActualizadoSource: CelesTrak SupGP

Época: Sep 14, 2026, 20:41 UTC

1 58109C 23161N   26257.86229167  .00018696  00000+0  55256-3 0  2571
2 58109  53.1602   3.7864 0001193  72.6789  81.7289 15.34370626    16

Sigue STARLINK-30606 en tiempo real con AllMySat

Download on the App Store